Volver al catálogo

FENGYUN 1C DEB

ActivoSSO
NORAD 30311·DEBRIS·🇨🇳 China

Lanzado May 10, 1999 desde Taiyuan Satellite Launch Center

Loading…

Próximos Pases (próximas 24 horas)

TLE

ActualizadoSource: Space-Track

Época: Sep 14, 2026, 11:49 UTC

1 30311U 99025ZY  26257.49253188  .00000273  00000-0  28363-3 0  9992
2 30311  99.1355 347.9207 0165105 185.4267 174.5101 13.78087302987580

Sigue FENGYUN 1C DEB en tiempo real con AllMySat

Download on the App Store